Location: A�t Lahcen
(32.8243°N, 5.4246°W)
Time: 02:00:59
(UTC+00:00)

Cosmos 1603 - Pass Details

Date: 27 January 2021
Orbit: 829 x 861 km, 71.0° (Epoch: 27 February)

Event Time Altitude Azimuth Distance (km) Brightness Sun altitude
Rises 06:08:54 0° 188° (S) 3,354 6.9 -15.1°
Reaches altitude 10° 06:11:21 10° 184° (S) 2,426 6.2 -14.6°
Maximum altitude 06:16:47 58° 107° (ESE) 967 4.4 -13.4°
Drops below altitude 10° 06:22:17 10° 29° (NNE) 2,453 6.3 -12.3°
Sets 06:24:46 0° 26° (NNE) 3,395 7.0 -11.8°
